Location: Caltech
(34.1382°N, 118.1253°W)
Time: 15:31:53
(UTC-07:00)

JAS-2 - Visible Passes

Search period start: 30 May 2015 00:00
Search period end: 09 June 2015 00:00
Orbit: 800 x 1322 km, 98.5° (Epoch: 29 May)

Date Brightness Start Highest point End Pass type
(mag) Time Alt. Az. Time Alt. Az. Time Alt. Az.
30 May 9.2 04:47:56 10° NNE 04:53:09 88° WNW 04:58:43 10° SSW visible
31 May 11.0 03:53:34 10° NE 03:57:57 27° E 04:02:42 10° SSE visible
01 Jun 9.3 04:42:54 10° NNE 04:48:09 85° ESE 04:53:49 10° SSW visible
02 Jun 11.1 03:48:38 10° NE 03:52:56 25° E 03:57:37 10° SSE visible
03 Jun 9.4 04:37:52 10° NNE 04:43:09 79° ESE 04:48:55 10° S visible
04 Jun 11.2 03:43:44 10° NE 03:47:55 24° E 03:52:32 10° SSE visible
05 Jun 9.5 04:32:50 10° NNE 04:38:09 72° ESE 04:44:01 10° S visible
06 Jun 11.3 03:38:50 10° NE 03:42:55 22° E 03:47:26 10° SSE visible
07 Jun 9.7 04:27:48 10° NNE 04:33:10 67° ESE 04:39:06 10° S visible
08 Jun 11.4 03:33:57 10° NE 03:37:54 21° E 03:42:21 10° SE visible
